STARLINK-11452, 62511

Orbit data source: Space-Track

STARLINK-11452, 62511 is a payload satellite owned by SpaceX/Seattle (US) in LEO that was launched on Wed, 08 Jan 2025 UTC via an FALCON 9 launch vehicle from the Air Force Eastern Test Range (AFETR). Payload-class satellites include a variety of spacecraft equipped with specific instruments for various scientific and technological missions. These include communications satellites like Starlink; space stations such as the ISS; scientific satellites like the Hubble; Earth observation satellites from companies like Planet Labs, Umbra, and HawkEye 360; GPS; miniature CubeSats for education and research; and military/defense satellites.

Loading next visibility...
Identifier
62511, 2025-004A
Orbit
LEO
Last TLE update
14 hours ago
Origin
Manufacturer
SpaceX/Seattle
Mission
Operational Commercial Communications
Bus & Motor
STARLINK V2M, Unknown motor
Mass
730 kg wet, ~700 kg dry
Launch date (UTC)
2025-01-08 (6 months ago)
Launch vehicle
FALCON 9
Launch site
Air Force Eastern Test Range (AFETR)
Object type
Payload
Rocket body
Debris
Shape & HBR
Box + 2 Pan, 29 m
Radar Cross Section
36.964 m², Large (>1 m²)

Expand to show TLE details & history

TLE from 14 hours ago
0 STARLINK-11452
1 62511U 25004A   25181.80379232  .00156803  00000-0  12017-2 0  9993
2 62511  42.9975 148.9944 0000892 287.0275  73.0495 15.70857647 28516
Epoch: 2025-06-30T19:17Z
TLE epoch observation values (Epoch: 2025-06-30T19:17:27.656Z)
Latitude
-0.00001°
Longitude
-59.47919°
Altitude
356.04 km
Speed
7.698 km/s
True Right ascension
09h 55m 58s
True Declination
0° 00' 00"
Sunlit
Object was in daylight at epoch
Visualization orbit readout
Latitude
-0.35241°
Longitude
-63.30593°
Altitude
355.543 km
Speed
7.698 km/s
Apparent Right ascension
09h 14m 56s
Apparent Declination
-19° 37' 32"
Sunlit
Object is in daylight
Visualization observer readout
Local Sidereal Time
20:39:31
Azimuth
336.876° NNW
Elevation
-68.331°
Doppler factor
1
Orbital elements
Apogee altitude
359.028 km
Perigee altitude
357.826 km
Semi-major axis
6,736.564 km
Eccentricity
0.00009
Inclination
42.9975°
RAAN
148.9944°
Arg. of periapsis
287.0275°
True anomaly
Unknown
Mean anomaly
73.0495°
Eccentric anomaly
Unknown
Mean motion
3.92541 °/min
Orbital period
91.71 mins
BSTAR
0.0012017
Loading maneuver chart data...
Loading SW <> Apogee altitude chart data...
Loading historical data...
Loading historical data...
Loading historical data...
Loading historical data...
Loading historical data...
Loading historical data...
Loading historical data...

STARLINK-11452 Visibility forecast

Observer location: undefined°, undefined°

Span
Click to sort rows by Start time (UTC) header in descending order
Start Az.
Max El. time (UTC)
Max El. Az.
Max El.
End time (UTC)
End Az.
4 mins2025-07-02 02:05:18.361Z258.427° W2025-07-02 02:06:18.361Z279.203° WNW43.26°2025-07-02 02:09:18.361Z70.654° E
4 mins2025-07-02 03:41:18.361Z298.79° NW2025-07-02 03:43:18.361Z30.039° NE31.977°2025-07-02 03:45:18.361Z71.993° E
4 mins2025-07-02 05:17:18.361Z290.549° WNW2025-07-02 05:19:18.361Z82.26° E43.66°2025-07-02 05:21:18.361Z105.05° ESE
|